Погода в Мальдонадо

Уругвай     34°52′47″S   54°58′02″W
темп.,
°C
ветер,
м/с
пор.,
м/с
влажн.,
%
обл.,
%
осадки,
мм/ч
давл.,
гПа
погр.,
м
9 марта, вт
вт900:00+21ююв88871 0.6 1016560
03:00+21юв668247 0.6 1015654
06:00+20ююв6681100 0.2 1016583
09:00+21ююв4371100 0.3 1017742
12:00+21ю336771 0.0 1017809
15:00+21юв547341 0.1 1016775
18:00+20вюв88780 0.1 1015745
21:00+20вюв77776 0.1 1016903
10 марта, ср
ср1000:00+20в677956 0.1 1016759
03:00+20всв457734 0.1 1014627
06:00+20всв347610 0.0 1015451
09:00+20св34776 0.0 1016360
12:00+23в33630 0.0 1015660
15:00+22вюв78700 0.0 1013492
18:00+23в910780 0.0 1012548
21:00+22св8117717 0.0 1012536
11 марта, чт
чт1100:00+21св81081100 0.0 1012435
03:00+20ссв698177 0.0 1011359
06:00+20ссв577973 0.0 1012307
09:00+21ссз357573 0.0 1014320
12:00+21ююв117182 0.0 101469
15:00+23вюв557140 0.0 1012185
18:00+23в677343 0.0 1011175
21:00+23всв8107726 0.0 1012220
12 марта, пт
пт1200:00+22ссв566620 0.0 1013187
03:00+21с456533 0.0 1013184
06:00+21с336542 0.0 101496
09:00+22сз226454 0.0 1015152
12:00+23ююз226052 0.0 1016104
15:00+23юв456626 0.0 1015209
18:00+23юв677516 0.0 1015362
21:00+22вюв898818 0.0 1017614
13 марта, сб
сб1300:00+22вюв898664 0.0 1017676
03:00+22вюв678669 0.1 1017532
06:00+21вюв558383 0.0 1018529
09:00+21в667991 0.1 1019537
12:00+22вюв557691 0.0 1019521
15:00+21вюв777761 0.0 1018441
18:00+21вюв6675100 0.0 1017626
21:00+21в8875100 0.0 1018780